PHNLPKMJ

Guest
Details From PHNL - Honolulu Intl
To PKMJ - Marshall Islands Intl
Flight Number -
Tags Generated
Created
Modified
Stats Distance 1,982 nm / 3,670 km
Max Altitude 0 ft / 0 m
Waypoints 3
Social Downloads 2
Likes 0
Share VATSIM

Download

Looking for another format? Having issues loading an existing format? Contact us
Advertisement - Login to hide

Notes

Generated

Route

PHNL R2385 PKMJ

ID Type Via Altitude Latitude Longitude Leg Dist Tot Dist Heading (true) Name
O PHNL APT - 0 ft / 0 m 21.31833˚ -157.92332˚ - 0 nm - Honolulu Intl
R2385 FIX - 0 ft / 0 m 7.06216˚ 171.26144˚ 1981 nm 1981 nm 249° / 241° -
O PKMJ APT - 0 ft / 0 m 7.06216˚ 171.26144˚ 0 nm 1981 nm 0° / 180° -

Altitude Profile

Advertisement - Login to hide

Weather


0- 5 10 15 20 25 30 35+ Temperature / ° C

Clouds and Precipitation
Forecast for 2018-05-20 12:00 UTC. Updated an hour ago

Ground ~20,000 ft ~40,000 ft Winds

PHNL

Details ICAO PHNL (HNL)
Name Honolulu Intl
Region USA (Hawaii)
Timezone Pacific/Honolulu (UTC-10.0)
Stats Elevation 13 ft / 4 m (AMSL)
Location 21.319376° -157.921281°
Runways 4
Magnetic Variation 9.468° E

METAR

PHNL 201153Z 05013KT 10SM FEW026 FEW038 24/18 A3007

Decode

TAF

TAF PHNL 201126Z 2012/2118 06012KT P6SM FEW025 FEW045 FM202000 06017G26KT P6SM FEW025 FEW050 FM210600 06012KT P6SM FEW025 SCT050

Decode

Departure Runways

ID Width Length Bearing (true) Bearing (mag) Surface Threshold Offset Overrun Length
04L 150 ft / 46 m 6,958 ft / 2,121 m 52.84° 43.37° Asphalt 0 ft / 0 m 215 ft / 66 m
04R 150 ft / 46 m 9,008 ft / 2,746 m 52.86° 43.39° Asphalt 0 ft / 0 m 200 ft / 61 m
08L 150 ft / 46 m 12,285 ft / 3,744 m 90.00° 80.53° Asphalt 0 ft / 0 m 1,000 ft / 305 m
08R 200 ft / 61 m 11,985 ft / 3,653 m 90.00° 80.53° Asphalt 0 ft / 0 m 700 ft / 213 m
22L 150 ft / 46 m 9,008 ft / 2,746 m 232.86° 223.39° Asphalt 0 ft / 0 m 215 ft / 66 m
22R 150 ft / 46 m 6,958 ft / 2,121 m 232.85° 223.38° Asphalt 0 ft / 0 m 0 ft / 0 m
26L 200 ft / 61 m 11,985 ft / 3,653 m 270.01° 260.54° Asphalt 0 ft / 0 m 700 ft / 213 m
26R 150 ft / 46 m 12,285 ft / 3,744 m 270.01° 260.54° Asphalt 0 ft / 0 m 655 ft / 200 m

PKMJ

Details ICAO PKMJ (MAJ)
Name MARSHALL ISLANDS INTL
Region Marshall Islands
Timezone Pacific/Majuro (UTC+12.0)
Stats Elevation 6 ft / 2 m (AMSL)
Location 7.064760° 171.272023°
Runways 1
Magnetic Variation 8.436° E

METAR

Not found

TAF

TAF TAF PKMJ 201120Z 2012/2112 08011KT P6SM VCSH SCT015 SCT050

Decode

Destination Runways

ID Width Length Bearing (true) Bearing (mag) Surface Threshold Offset Overrun Length
07 150 ft / 46 m 7,898 ft / 2,407 m 76.08° 67.64° Asphalt 0 ft / 0 m 200 ft / 61 m
25 150 ft / 46 m 7,898 ft / 2,407 m 256.08° 247.64° Asphalt 0 ft / 0 m 200 ft / 61 m

Popular Alternatives